Location: Binningen
(47.7924°N, 8.7261°E)
Time: 18:37:42
(UTC+00:00)

Cosmos 2369 Rocket - Pass Details

Date: 17 May 2021
Orbit: 827 x 854 km, 71.0° (Epoch: 21 June)

Event Time Altitude Azimuth Distance (km) Brightness Sun altitude
Exits shadow 22:24:41 14° 231° (SW) 2,161 4.1 -21.5°
Maximum altitude 22:29:21 51° 304° (WNW) 1,055 2.9 -21.7°
Drops below altitude 10° 22:34:52 10° 20° (NNE) 2,473 5.4 -21.9°
Sets 22:37:25 0° 25° (NNE) 3,416 6.2 -21.9°
